Volver al catálogo

NOAA 16 DEB

ActivoPO
NORAD 42351·DEBRIS·🇺🇸 United States

Lanzado Sep 21, 2000 desde Vandenberg Space Force Base

Loading…

Próximos Pases (próximas 24 horas)

TLE

ActualizadoSource: Space-Track

Época: Sep 12, 2026, 08:35 UTC

1 42351U 00055QT  26255.35830783  .00006599  00000-0  12269-2 0  9993
2 42351  98.7032  38.7674 0028407  33.6125 326.6871 14.65242029546229

Sigue NOAA 16 DEB en tiempo real con AllMySat

Download on the App Store